Regional Weather Roundup
Issued by NWS

Home | Current Version | Previous Version | Text Only | Print | Product List | Glossary On
Versions: 1 2 3 4 5 6 7 8 9 10 11 12 13 14 15 16 17 18 19 20 21 22 23 24 25 26 27
000
ASUS45 KBOU 240710
RWRCO

WEATHER ROUNDUP FOR COLORADO
NATIONAL WEATHER SERVICE DENVER/BOULDER CO
100 AM MDT SAT SEP 24 2016

NOTE: "FAIR" INDICATES FEW OR NO CLOUDS BELOW 12000 FEET WITH NO
SIGNIFICANT WEATHER AND/OR OBSTRUCTIONS TO VISIBILITY.

COZ001>005-013-030-031-240800-
...NORTHWEST COLORADO...

CITY           SKY/WX    TMP DP  RH WIND       PRES   REMARKS
CRAIG          CLOUDY    43  37  79 CALM      30.07R
HAYDEN         MOCLDY    37  30  75 SE7       30.08R
MEEKER         CLOUDY    43  36  76 SW5       30.08R
MOUNT WERNER   NOT AVBL
STEAMBOAT SPGS CLOUDY    38  36  89 E6        30.08S
WALDEN           N/A     34  28  80 S10       30.11R WCI  26
$$

COZ006>008-011-240800-
...WEST CENTRAL VALLEYS...

CITY           SKY/WX    TMP DP  RH WIND       PRES   REMARKS
GRAND JUNCTION CLOUDY    49  40  71 E8        30.07R
MONTROSE       MOCLDY    42  35  76 SE6       30.12S
EAGLE          MOCLDY    39  36  87 SE6       30.13R
RIFLE          CLOUDY    44  40  85 CALM      30.10R
DELTA          NOT AVBL
NUCLA          CLOUDY    45  32  61 E5        30.13S
$$

COZ017>023-064>068-240800-
...SOUTHWEST COLORADO...

CITY           SKY/WX    TMP DP  RH WIND       PRES   REMARKS
DURANGO        FAIR      34  31  88 N7        30.19R WCI  28
CORTEZ         CLOUDY    40  37  89 NE5       30.14S
PAGOSA SPRINGS MOCLDY    33  33 100 CALM      30.21F
TELLURIDE      FAIR      32  27  81 CALM      30.22S
WOLF CREEK PAS FAIR      21  21 100 MISG      30.29S
$$

COZ009-010-012-014-032>034-037-058>063-240800-
...CENTRAL COLORADO...

CITY           SKY/WX    TMP DP  RH WIND       PRES   REMARKS
ASPEN          FAIR      33  31  92 SW6       30.12S WCI  28
BUENA VISTA    FAIR      37  26  65 S9        30.12R
COPPER MTN     MOCLDY    27  18  69 MISG      30.20S
BERTHOUD PASS  CLOUDY    19   5  53 NW22G30   30.16F WCI   3
COTTONWOOD PAS FAIR      36  21  55 W17G28    30.15R
GUNNISON       MOCLDY    30  28  93 N6        30.18R WCI  24
KREMMLING      MOCLDY    37  28  70 SW3       30.12S
LEADVILLE      FAIR      28  21  75 N7        30.15S WCI  21
SALIDA         FAIR      43  28  55 S18G30    30.20R
SUNLIGHT       CLOUDY    30  28  93 MISG      30.20S
WILKERSON PASS FAIR      25  21  86 SW10G20   30.19R WCI  15
$$

COZ069>075-240800-
...SAN LUIS VALLEY/SANGRE DE CRISTO MOUNTAINS...

CITY           SKY/WX    TMP DP  RH WIND       PRES   REMARKS
ALAMOSA        FAIR      30  29  96 E6        30.18R WCI  24
LA VETA PASS   FAIR      32  23  69 MISG      30.16R
SAGUACHE       NOT AVBL
$$

COZ035-036-038>040-240800-
...NORTHERN COLORADO FRONT RANGE...

CITY           SKY/WX    TMP DP  RH WIND       PRES   REMARKS
DENVER INTL AP MOCLDY    51  27  39 E10       29.94R
DMNS CITY PARK   N/A     55  22  28 W8G14     29.94R
AURORA         PTCLDY    52  24  33 SW9       29.95R
FRONT RANGE AP FAIR      54  30  40 E14G21    29.96R
ERIE MUNI ARPT FAIR      52  33  48 W5        29.93S
BOULDER MUN AP FAIR      54  32  43 E3        29.93R
CENTENNIAL     FAIR      50  22  33 SW12      29.95R
BROOMFIELD     FAIR      54  23  30 W17G32    29.95R
FORT COLLINS   MOCLDY    54  32  43 SW9G18    29.94R
LONGMONT       MOCLDY    52  42  69 NE3       29.94F
$$

COZ041-046-047-076>085-087-088-240800-
...PIKES PEAK/PALMER DIVIDE AND SOUTHERN FOOTHILLS...

CITY           SKY/WX    TMP DP  RH WIND       PRES   REMARKS
COLO. SPRINGS  FAIR      52  20  28 S3        30.02R
A. F. ACADEMY  FAIR      48  20  32 W20G36    30.03R
SCHRIEVER AFB  NOT AVBL
ELLICOTT       FAIR     N/A N/A N/A W8        30.02R
FALCON         FAIR      47  19  32 W21G36    30.04R
FORT CARSON    FAIR      50  21  32 SE7       29.99R
LIMON          FAIR      47  34  60 N9        29.98R
MONUMENT HILL  FAIR      41  23  48 SW9       30.04R
TRINIDAD       FAIR      52  22  30 N9        30.01R
$$

COZ042>045-048>051-090-091-240800-
...NORTHEAST COLORADO...

CITY           SKY/WX    TMP DP  RH WIND       PRES   REMARKS
GREELEY ARPT   CLOUDY    46  39  76 NW10      29.96R
AKRON          FAIR      49  42  77 N15G21    29.93R
BURLINGTON     FAIR      57  42  57 SW23      29.91R
WRAY           NOT AVBL
STERLING       FAIR      54  41  62 N18G31    29.84F
HOLYOKE        FAIR      55  52  88 NE18      29.85F
FORT MORGAN    CLOUDY    52  34  50 NW21G28   29.98R
$$

COZ086-089-092>099-240800-
...SOUTHEAST COLORADO...

CITY           SKY/WX    TMP DP  RH WIND       PRES   REMARKS
PUEBLO         FAIR      57  26  30 W21       29.98R
LA JUNTA       FAIR      55  27  34 W9        29.95S
LAMAR          FAIR      49  38  65 S10       29.94R
SPRINGFIELD    NOT AVBL
$$




USA.gov is the U.S. government's official web portal to all federal, state and local government web resources and services.